OPS 4682 DEB, 38422

Orbit data source: Space-Track

OPS 4682 DEB, 38422 is space debris in LEO originally from a launch on Sat, 03 Apr 1965 UTC launched from the Air Force Western Test Range (AFWTR). Debris objects in space refer to the collection of defunct objects orbiting the Earth. Examples of debris include non-operational satellites, rocket bodies, and fragments generated from explosions, collisions, or faulty payload assembly.

Loading next visibility...
Identifier
38422, 1965-027EB
Orbit
LEO
Country
Flag of USUS
Related business
Manufacturer
Unknown
Mission
Spacecraft
Bus & Motor
Unknown
Mass
Unknown
Launch date (UTC)
1965-04-03 (61 years ago)
Launch vehicle
Unknown
Launch site
Air Force Western Test Range (AFWTR)
Object type
Payload
Rocket body
Debris
Shape & HBR
Unknown shape, 0.1 m
Radar Cross Section
Small (<0.1 m²)

Expand to show TLE details & history
Last TLE update: 10 hours ago

TLE from 10 hours ago
0 OPS 4682 DEB
1 38422U 65027EB  26035.93398743  .00000627  00000-0  21255-2 0  9993
2 38422  90.2612  21.1128 0035785  51.7259 308.7072 12.97586908645976
Epoch: 2026-02-04T22:24Z
TLE epoch observation values (Epoch: 2026-02-04T22:24:56.513Z)
Latitude
-0.00004°
Longitude
-90.21612°
Altitude
1,257.374 km
Speed
7.235 km/s
True Right ascension
01h 24m 27s
True Declination
0° 00' 00"
Sunlit
Object was in daylight at epoch
Visualization orbit readout
Latitude
Unknown
Longitude
Unknown
Altitude
Unknown
Speed
Unknown
Apparent Right ascension
Unknown
Apparent Declination
Unknown
Sunlit
N/A
Visualization observer readout
Local Sidereal Time
10:08:13
Azimuth
Unknown
Elevation
Unknown
Doppler factor
Unknown
Orbital elements
Apogee altitude
1,296.051 km
Perigee altitude
1,241.322 km
Semi-major axis
7,646.823 km
Eccentricity
0.00358
Inclination
90.2612°
RAAN
21.1128°
Arg. of periapsis
51.7259°
True anomaly
308.38631°
Mean anomaly
308.7072°
Eccentric anomaly
308.54684°
Mean motion
3.2458 °/min
Orbital period
110.91 mins
BSTAR
0.0021255
Loading maneuver chart data...
Computing Atmospheric mass density...
Loading historical data...
Loading historical data...
Loading historical data...
Loading historical data...
Loading historical data...
Loading historical data...
Loading historical data...

Documentation

Showing up to 5 results
|